TimeEDT,TemperatureF,Dew PointF,Humidity,Sea Level PressureIn,VisibilityMPH,Wind Direction,Wind SpeedMPH,Gust SpeedMPH,PrecipitationIn,Events,Conditions,WindDirDegrees,DateUTC
12:14 AM,66.2,62.6,88,29.55,10.0,Calm,Calm,-,N/A,,Mostly Cloudy,0,2013-06-29 04:14:00
12:34 AM,66.2,64.4,94,29.55,10.0,Calm,Calm,-,N/A,,Mostly Cloudy,0,2013-06-29 04:34:00
12:54 AM,66.2,64.4,94,29.55,7.0,North,3.5,-,N/A,,Overcast,350,2013-06-29 04:54:00
1:14 AM,66.2,62.6,88,29.55,7.0,North,3.5,-,N/A,,Mostly Cloudy,350,2013-06-29 05:14:00
1:34 AM,66.2,62.6,88,29.54,7.0,Calm,Calm,-,N/A,,Overcast,0,2013-06-29 05:34:00
1:54 AM,66.2,62.6,88,29.55,7.0,Calm,Calm,-,N/A,,Overcast,0,2013-06-29 05:54:00
2:14 AM,66.2,62.6,88,29.55,7.0,Calm,Calm,-,N/A,,Overcast,0,2013-06-29 06:14:00
2:34 AM,66.2,62.6,88,29.55,10.0,Calm,Calm,-,N/A,,Overcast,0,2013-06-29 06:34:00
2:54 AM,66.2,62.6,88,29.54,7.0,Calm,Calm,-,N/A,,Mostly Cloudy,0,2013-06-29 06:54:00
3:14 AM,64.4,62.6,94,29.53,5.0,Calm,Calm,-,N/A,,Scattered Clouds,0,2013-06-29 07:14:00
3:34 AM,64.4,62.6,94,29.54,4.0,Calm,Calm,-,N/A,,Clear,0,2013-06-29 07:34:00
3:54 AM,64.4,62.6,94,29.54,5.0,Calm,Calm,-,N/A,,Scattered Clouds,0,2013-06-29 07:54:00
4:14 AM,64.4,62.6,94,29.54,5.0,Calm,Calm,-,N/A,,Mostly Cloudy,0,2013-06-29 08:14:00
4:34 AM,66.2,62.6,88,29.55,7.0,WNW,3.5,-,N/A,,Overcast,300,2013-06-29 08:34:00
4:54 AM,66.2,62.6,88,29.55,7.0,Calm,Calm,-,N/A,,Overcast,0,2013-06-29 08:54:00
5:14 AM,66.2,62.6,88,29.55,7.0,Calm,Calm,-,N/A,,Overcast,0,2013-06-29 09:14:00
5:34 AM,66.2,62.6,88,29.55,10.0,Calm,Calm,-,N/A,,Overcast,0,2013-06-29 09:34:00
5:54 AM,66.2,62.6,88,29.55,10.0,Calm,Calm,-,N/A,,Overcast,0,2013-06-29 09:54:00
6:14 AM,66.2,62.6,88,29.56,7.0,Calm,Calm,-,N/A,,Overcast,0,2013-06-29 10:14:00
6:35 AM,64.4,62.6,94,29.56,7.0,Calm,Calm,-,N/A,,Overcast,0,2013-06-29 10:35:00
6:54 AM,66.2,62.6,88,29.57,7.0,Calm,Calm,-,N/A,,Overcast,0,2013-06-29 10:54:00
7:14 AM,66.2,62.6,88,29.57,10.0,Calm,Calm,-,N/A,,Overcast,0,2013-06-29 11:14:00
7:34 AM,66.2,62.6,88,29.58,10.0,NW,3.5,-,N/A,,Overcast,320,2013-06-29 11:34:00
7:54 AM,66.2,62.6,88,29.57,10.0,North,3.5,-,N/A,,Overcast,350,2013-06-29 11:54:00
8:14 AM,66.2,62.6,88,29.57,10.0,North,4.6,-,N/A,,Mostly Cloudy,350,2013-06-29 12:14:00
8:34 AM,66.2,62.6,88,29.57,10.0,North,4.6,-,N/A,,Mostly Cloudy,350,2013-06-29 12:34:00
8:54 AM,66.2,64.4,94,29.57,10.0,North,5.8,-,N/A,,Scattered Clouds,350,2013-06-29 12:54:00
9:14 AM,68.0,64.4,88,29.58,10.0,Calm,Calm,-,N/A,,Mostly Cloudy,0,2013-06-29 13:14:00
9:34 AM,68.0,62.6,83,29.59,10.0,North,4.6,-,N/A,,Overcast,360,2013-06-29 13:34:00
9:54 AM,68.0,62.6,83,29.59,10.0,North,4.6,-,N/A,,Overcast,360,2013-06-29 13:54:00
10:14 AM,68.0,62.6,83,29.59,10.0,North,3.5,-,N/A,,Overcast,10,2013-06-29 14:14:00
10:34 AM,68.0,64.4,88,29.59,10.0,Calm,Calm,-,N/A,,Overcast,0,2013-06-29 14:34:00
10:54 AM,69.8,64.4,83,29.59,10.0,Calm,Calm,-,N/A,,Overcast,0,2013-06-29 14:54:00
11:14 AM,69.8,64.4,83,29.60,10.0,NE,3.5,-,N/A,,Overcast,50,2013-06-29 15:14:00
11:34 AM,69.8,64.4,83,29.60,10.0,NE,3.5,-,N/A,,Overcast,40,2013-06-29 15:34:00
11:54 AM,69.8,64.4,83,29.61,10.0,North,3.5,-,N/A,,Overcast,360,2013-06-29 15:54:00
12:14 PM,71.6,64.4,78,29.60,10.0,NNE,4.6,-,N/A,,Scattered Clouds,30,2013-06-29 16:14:00
12:34 PM,71.6,64.4,78,29.60,10.0,ENE,5.8,-,N/A,,Clear,70,2013-06-29 16:34:00
12:54 PM,73.4,64.4,73,29.60,10.0,NE,4.6,-,N/A,,Mostly Cloudy,50,2013-06-29 16:54:00
1:14 PM,73.4,64.4,73,29.60,10.0,ENE,6.9,-,N/A,,Scattered Clouds,60,2013-06-29 17:14:00
1:34 PM,73.4,64.4,73,29.60,10.0,East,6.9,-,N/A,,Mostly Cloudy,80,2013-06-29 17:34:00
1:55 PM,73.4,64.4,73,29.60,10.0,ENE,9.2,-,N/A,,Mostly Cloudy,60,2013-06-29 17:55:00
2:14 PM,73.4,62.6,69,29.61,10.0,NE,9.2,-,N/A,,Overcast,40,2013-06-29 18:14:00
2:34 PM,73.4,62.6,69,29.61,10.0,ENE,8.1,-,N/A,,Mostly Cloudy,60,2013-06-29 18:34:00
2:54 PM,73.4,62.6,69,29.61,10.0,NE,9.2,-,N/A,,Mostly Cloudy,40,2013-06-29 18:54:00
3:14 PM,73.4,62.6,69,29.61,10.0,ENE,8.1,-,N/A,,Overcast,60,2013-06-29 19:14:00
3:34 PM,73.4,62.6,69,29.61,10.0,ENE,8.1,-,N/A,,Scattered Clouds,70,2013-06-29 19:34:00
3:54 PM,73.4,62.6,69,29.62,10.0,ENE,10.4,-,N/A,,Mostly Cloudy,60,2013-06-29 19:54:00
4:14 PM,75.2,62.6,65,29.62,10.0,East,9.2,-,N/A,,Scattered Clouds,80,2013-06-29 20:14:00
4:34 PM,75.2,62.6,65,29.62,10.0,NE,9.2,-,N/A,,Clear,50,2013-06-29 20:34:00
4:54 PM,75.2,62.6,65,29.63,10.0,NE,8.1,-,N/A,,Clear,50,2013-06-29 20:54:00
5:14 PM,73.4,60.8,65,29.63,10.0,NE,10.4,-,N/A,,Scattered Clouds,40,2013-06-29 21:14:00
5:34 PM,71.6,60.8,69,29.63,10.0,ENE,12.7,-,N/A,,Mostly Cloudy,60,2013-06-29 21:34:00
5:54 PM,71.6,60.8,69,29.63,10.0,ENE,9.2,-,N/A,,Overcast,60,2013-06-29 21:54:00
6:14 PM,71.6,60.8,69,29.63,10.0,NE,10.4,16.1,N/A,,Overcast,50,2013-06-29 22:14:00
6:34 PM,71.6,60.8,69,29.64,10.0,NE,10.4,-,N/A,,Overcast,50,2013-06-29 22:34:00
6:54 PM,71.6,60.8,69,29.65,10.0,NE,8.1,-,N/A,,Mostly Cloudy,50,2013-06-29 22:54:00
7:14 PM,71.6,60.8,69,29.66,10.0,NE,11.5,-,N/A,,Scattered Clouds,50,2013-06-29 23:14:00
7:34 PM,71.6,59.0,64,29.67,10.0,NE,12.7,-,N/A,,Scattered Clouds,50,2013-06-29 23:34:00
7:54 PM,69.8,57.2,64,29.67,10.0,NE,11.5,-,N/A,,Scattered Clouds,50,2013-06-29 23:54:00
8:14 PM,69.8,57.2,64,29.67,10.0,NE,10.4,20.7,N/A,,Clear,50,2013-06-30 00:14:00
8:34 PM,69.8,57.2,64,29.68,10.0,ENE,10.4,-,N/A,,Clear,60,2013-06-30 00:34:00
8:54 PM,69.8,59.0,68,29.69,10.0,NE,11.5,-,N/A,,Clear,40,2013-06-30 00:54:00
9:14 PM,69.8,57.2,64,29.70,10.0,NE,12.7,-,N/A,,Clear,50,2013-06-30 01:14:00
9:34 PM,68.0,57.2,68,29.70,10.0,NE,9.2,-,N/A,,Scattered Clouds,50,2013-06-30 01:34:00
9:54 PM,68.0,57.2,68,29.71,10.0,ENE,6.9,-,N/A,,Overcast,60,2013-06-30 01:54:00
10:14 PM,68.0,55.4,64,29.71,10.0,NE,6.9,-,N/A,,Mostly Cloudy,50,2013-06-30 02:14:00
10:34 PM,68.0,55.4,64,29.71,10.0,NE,10.4,-,N/A,,Scattered Clouds,40,2013-06-30 02:34:00
10:54 PM,66.2,57.2,73,29.72,10.0,NE,10.4,-,N/A,,Mostly Cloudy,40,2013-06-30 02:54:00
11:14 PM,66.2,57.2,73,29.72,10.0,NNE,6.9,-,N/A,,Overcast,30,2013-06-30 03:14:00
11:34 PM,66.2,57.2,73,29.73,10.0,NNE,8.1,-,N/A,,Scattered Clouds,30,2013-06-30 03:34:00
11:54 PM,66.2,57.2,73,29.72,10.0,NNE,6.9,-,N/A,,Scattered Clouds,20,2013-06-30 03:54:00